ALOUETTE 1 (S-27) 1 00424U 62049A 09007.20922973 .00000045 00000-0 41405-4 0 450 2 00424 080.4658 074.1977 0024263 100.9395 259.4480 13.68707041309676 IUE 1 10637U 78012A 09003.17957721 .00000018 00000-0 10000-3 0 4613 2 10637 042.7738 017.5161 1549506 150.3220 219.5019 01.00061825 65803 IRAS 1 13777U 83004A 09006.56532774 -.00000270 00000-0 -15279-3 0 7259 2 13777 099.0717 201.2133 0015380 305.9978 053.9758 14.00079168994982 EXOS D (AKEBONO) 1 19822U 89016A 09006.82770405 .00009893 -13879-6 33340-3 0 1008 2 19822 075.0758 060.0322 2710106 126.7107 261.4700 09.97106355579354 INTERCOSMOS 24 1 20261U 89080A 09005.91490678 +.00000055 +00000-0 +12502-4 0 08931 2 20261 082.5897 203.8361 1215673 352.8331 005.6651 12.53409419879257 COBE 1 20322U 89089A 09006.12084429 -.00000117 00000-0 -45893-4 0 8036 2 20322 098.9853 009.9977 0008401 210.7092 149.3573 14.04364299980425 HST 1 20580U 90037B 09006.22217519 .00000330 00000-0 12713-4 0 2995 2 20580 028.4695 078.9162 0003402 022.5106 337.5637 15.00444770825505 ROSAT 1 20638U 90049A 09006.52629701 .00004473 00000-0 64201-4 0 5652 2 20638 052.9933 142.8808 0004609 130.8998 229.2398 15.58411872 34598 CRRES 1 20712U 90065A 09006.42564652 .00000288 00000-0 17374-3 0 8218 2 20712 017.5324 144.3730 7151295 296.2441 008.9423 02.42690518153165 SARA 1 21578U 91050E 09006.72185912 .00000087 00000-0 33302-4 0 4263 2 21578 098.2034 341.7171 0003948 320.9467 039.1441 14.50409829921017 UARS 1 21701U 91063B 09006.46064849 .00004531 00000-0 68342-4 0 5600 2 21701 056.9735 353.0684 0076359 213.0532 146.5741 15.53805211954077 SAMPEX 1 22012U 92038A 09006.53100631 .00003044 00000-0 76322-4 0 7952 2 22012 081.6381 127.7097 0048643 118.1340 242.4827 15.38367645909557 ORBVIEW 1 (MICROLAB) 1 23547U 95017C 09006.20616939 .00000126 00000-0 43777-4 0 7645 2 23547 069.9797 227.8106 0009683 145.7349 214.4425 14.55447388729048 XTE 1 23757U 95074A 09006.43484252 .00001349 00000-0 32449-4 0 7762 2 23757 022.9831 107.7668 0009106 126.6351 233.4989 15.27044347721012 FAST 1 24285U 96049A 09005.88089767 +.00001286 +00000-0 +11010-3 0 08033 2 24285 082.9686 140.2068 1999480 115.6931 266.3735 11.25984905500268 TRACE 1 25280U 98020A 09006.54403612 .00000832 00000-0 73652-4 0 638 2 25280 097.6977 218.1887 0024488 077.8403 282.5543 14.98763685586841 SAFIR 2 1 25399U 98043F 09006.50824522 -.00000097 00000-0 -24339-4 0 2306 2 25399 098.3537 044.4015 0001064 326.7534 033.3586 14.23926795545341 SWAS 1 25560U 98071A 09006.57000040 .00000084 00000-0 18975-4 0 8405 2 25560 069.9019 047.3682 0007173 135.4993 224.6731 14.86825862546343 ASTRID 2 1 25568U 98072B 09006.80115356 -.00000115 00000-0 -14295-3 0 9449 2 25568 082.9481 098.2432 0026114 141.2947 219.0087 13.71974869504539 ORSTED 1 25635U 99008B 09006.81392033 .00000107 00000-0 34649-4 0 5401 2 25635 096.4605 236.3823 0143131 342.8339 016.8043 14.45792343520422 SUNSAT 1 25636U 99008C 09006.33024909 .00000016 00000-0 12300-4 0 2016 2 25636 096.4581 229.3618 0148805 015.0415 345.5129 14.43452310519753 WIRE 1 25646U 99011A 09006.23823545 .00005815 00000-0 86327-4 0 6930 2 25646 097.2890 267.7235 0008291 017.6503 342.5028 15.55577525549890 ABRIXAS 1 25721U 99022A 09006.19170911 -.00000671 00000-0 -15852-4 0 4674 2 25721 048.4436 060.1874 0020374 173.3219 186.7988 15.20053823535814 TERRIERS 1 25735U 99026A 09006.52858270 .00000241 00000-0 12813-4 0 6151 2 25735 097.2470 245.3193 0005807 271.0137 089.0435 15.23821119534263 FUSE 1 1 25791U 99035A 09006.05264603 .00000283 00000-0 31008-4 0 3444 2 25791 024.9860 241.8627 0010278 011.2576 348.8183 14.41784512502970 CXO 1 25867U 99040B 09005.20833333 +.00000266 +00000-0 +10000-3 0 02811 2 25867 064.7098 074.6722 7215150 276.9750 001.0199 00.37808922004394 CLEMENTINE 1 25978U 99064B 09006.38018960 -.00000036 00000-0 25864-5 0 5388 2 25978 098.1622 076.7771 0009728 296.8155 063.2028 14.85432879491891 XMM 1 25989U 99066A 09006.45833333 +.00000397 +00000-0 +10000-3 0 06248 2 25989 058.1809 101.7752 5814577 114.9924 354.0758 00.50133332005429 TERRA 1 25994U 99068A 09007.08088423 .00000018 00000-0 14118-4 0 2924 2 25994 098.2196 084.4078 0001284 116.3580 243.7756 14.57105038481692 ACRIMSAT 1 26033U 99070B 09006.54536941 -.00000004 00000-0 86020-5 0 5634 2 26033 097.9987 255.1098 0028642 346.1191 013.9212 14.60528864481951 IMAGE 1 26113U 00017A 09003.64967620 +.00000238 +00000-0 +00000-0 0 07736 2 26113 091.5197 210.8584 7513179 303.1387 006.3750 01.68635340054054 DELTA 2 R/B(2) 1 26115U 00017C 09005.54616032 .00000362 00000-0 18564-1 0 5525 2 26115 091.5504 210.9414 7524719 303.9674 006.1808 01.68195097 53949 CLUSTER II-FM6 1 26410U 00041A 09006.91666667 +.00001138 +00000-0 +00000-0 0 02783 2 26410 108.2403 188.0850 8273112 035.1006 357.5753 00.42042570003936 CLUSTER II-FM7 1 26411U 00041B 09006.79166667 +.00001145 +00000-0 +00000-0 0 02930 2 26411 108.2338 188.0970 8269692 035.1916 355.7648 00.42042399004006 CLUSTER II-FM5 1 26463U 00045A 09006.79166667 +.00001071 +00000-0 +00000-0 0 02805 2 26463 110.8969 190.8921 8151706 032.8041 356.2373 00.42042191004504 CLUSTER II-FM8 1 26464U 00045B 09006.79166667 +.00000855 +00000-0 +00000-0 0 02704 2 26464 103.6474 181.8350 8194055 030.7005 356.2194 00.42043526003887 MEGSAT 1 1 26546U 00057B 09007.01926634 -.00000047 00000-0 12571-4 0 5754 2 26546 064.5583 209.8765 0045663 292.1576 067.4667 14.84164672448262 HETE 2 1 26561U 00061A 09005.45422777 .00000960 00000-0 13199-4 0 4020 2 26561 001.9498 342.1168 0023916 114.0838 246.1938 14.95988357450690 MUNIN 1 26621U 00075C 09006.52760566 -.00000349 00000-0 -30940-3 0 4634 2 26621 095.4296 101.3754 0717968 091.7113 276.6309 13.03724249386640 ODIN 1 26702U 01007A 09007.05679903 .00000088 00000-0 13068-4 0 5860 2 26702 097.7210 029.8981 0002926 282.8935 077.1960 14.95648730429370 TIMED 1 26998U 01055B 09006.01472349 .00000053 00000-0 10695-4 0 1872 2 26998 074.0746 310.7339 0000619 153.1596 206.9622 14.84044223383469 HESSI 1 27370U 02004A 09006.46207073 .00000272 00000-0 28437-4 0 9606 2 27370 038.0384 010.3574 0015514 090.2176 270.0362 15.02036926379405 USERS (SERVICE MODULE) (Decayed 2007-06-15) 1 27515U 02042A 07165.28398148 .02788115 -47478-5 58034-3 0 6437 2 27515 030.3988 006.1610 0004722 351.8108 358.0490 16.29812123266589 INTEGRAL 1 27540U 02048A 09005.45833333 -.00000242 +00000-0 +10000-3 0 07630 2 27540 087.0343 008.2570 8234770 267.5912 001.6210 00.33408630003752 FEDSAT 1 27598U 02056B 09006.89330079 .00000041 00000-0 33564-4 0 6838 2 27598 098.4047 064.9725 0009201 354.9120 005.1966 14.28001141316227 WEOS 1 27599U 02056C 09006.79512376 -.00000096 00000-0 -21509-4 0 6928 2 27599 098.4253 069.7462 0009995 006.6886 353.4430 14.28548408316326 MICRO LABSAT 1 27600U 02056D 09006.57064513 -.00000159 00000-0 -46130-4 0 6648 2 27600 098.4173 069.2164 0011068 010.3632 349.7780 14.28848913316363 CORIOLIS 1 27640U 03001A 09006.10785426 -.00000079 00000-0 -17232-4 0 7682 2 27640 098.7487 014.3853 0014431 157.8349 202.3423 14.18330460310682 CHIPSAT 1 27643U 03002B 09006.58014419 -.00000312 00000-0 -25793-4 0 9565 2 27643 094.0124 225.0652 0011647 349.8949 010.2045 14.97197254326788 SORCE 1 27651U 03004A 09006.55652828 .00000066 00000-0 23962-4 0 7989 2 27651 039.9961 125.1529 0027711 302.5341 057.2780 14.82138915322302 GALEX 1 27783U 03017A 09006.56654673 .00000110 00000-0 10452-5 0 5765 2 27783 028.9978 162.6070 0004201 303.9983 056.0218 14.59721054304148 MOST 1 27843U 03031D 09006.44593999 -.00000022 00000-0 10100-4 0 4804 2 27843 098.7198 016.5733 0009006 258.4249 101.5916 14.20105421286225 QUAKESAT 1 27845U 03031F 09006.96476558 .00000057 00000-0 47126-4 0 4595 2 27845 098.7210 017.7837 0008346 267.1655 092.8562 14.20242017286282 AAU CUBESAT 1 27846U 03031G 09005.52079694 +.00000007 +00000-0 +23272-4 0 03991 2 27846 098.7079 017.9582 0008925 230.6262 129.4118 14.20962294286243 SCISAT 1 1 27858U 03036A 09006.58434629 .00000086 00000-0 17989-4 0 6368 2 27858 073.9340 139.3496 0009032 236.2633 123.7676 14.74788838290890 KAISTSAT 4 1 27945U 03042G 09006.88620440 .00000004 00000-0 96677-5 0 6006 2 27945 097.9713 248.4503 0011412 291.8165 068.1850 14.63128611281992 DOUBLESTAR (TC-1) (Decayed 2007-10-14) 1 28140U 03061A 07287.06978781 +.01244379 -22592-5 +10000-3 0 01751 2 28140 018.8616 210.3539 4780782 049.3666 343.3587 06.28920458006227 GP-B 1 28230U 04014A 09006.54047206 .00000205 00000-0 27567-4 0 4068 2 28230 089.9473 158.9506 0002873 065.3371 294.8153 14.75952062253931 DEMETER 1 28368U 04025C 09007.05068311 .00000117 00000-0 27454-4 0 1692 2 28368 097.9927 076.0735 0001119 086.7190 273.4138 14.70218338242040 DOUBLESTAR (TC-2) 1 28382U 04029A 09005.99082118 -.00000062 00000-0 25724-3 0 9576 2 28382 089.0402 337.1801 7355590 315.5917 004.8834 02.11748709 34212 SWIFT 1 28485U 04047A 09005.97841957 .00000634 00000-0 21786-4 0 1966 2 28485 020.5601 234.9844 0014147 199.9517 160.0375 14.92485881225400 ASTRO E2 1 28773U 05025A 09006.86938107 .00000239 00000-0 12686-4 0 9065 2 28773 031.4050 210.8918 0006200 077.5076 282.6263 15.00719624191950 ASTRO F (AKARI) 1 28939U 06005A 09006.05214861 .00000100 00000-0 32161-4 0 8890 2 28939 098.2427 010.7745 0007986 329.3924 030.6823 14.57512415152477 FORMOSAT 3A 1 29047U 06011A 09006.99853932 -.00000267 00000-0 -91594-4 0 8531 2 29047 071.9821 349.3127 0049821 060.8396 299.7705 14.27088644144739 FORMOSAT 3B 1 29048U 06011B 09007.10191234 .00000389 00000-0 17471-3 0 8978 2 29048 071.9701 264.7597 0044690 009.2233 350.9680 14.27105169147225 FORMOSAT 3C 1 29049U 06011C 09006.55842733 .00000361 00000-0 16364-3 0 8356 2 29049 072.0219 054.0210 0033936 075.8924 284.5946 14.27108326142928 FORMOSAT 3D 1 29050U 06011D 09006.17938138 .00001097 00000-0 26646-3 0 1175 2 29050 072.0096 248.1849 0053166 333.2754 026.5619 14.53973499147696 FORMOSAT 3E 1 29051U 06011E 09007.08007784 .00000372 00000-0 16522-3 0 8995 2 29051 072.0102 322.2461 0071049 302.2122 057.2116 14.27108283145585 FORMOSAT 3F 1 29052U 06011F 09006.14634833 .00000359 00000-0 16273-3 0 9116 2 29052 072.0368 025.6237 0039613 045.6508 314.7837 14.27099441143755 CLOUDSAT 1 29107U 06016A 09006.55340581 .00000051 00000-0 21463-4 0 8735 2 29107 098.2523 313.1429 0001046 078.4817 281.6509 14.57103965143335 CALIPSO 1 29108U 06016B 09006.55360009 .00000128 00000-0 38538-4 0 8706 2 29108 098.2523 313.1958 0001151 078.0666 282.0667 14.57104722143318 HINODE (SOLAR B) 1 29479U 06041A 09006.22829382 .00000081 00000-0 25031-4 0 7445 2 29479 098.0810 014.0935 0015243 181.6009 178.5148 14.62874212122300 SJ-6C 1 29505U 06046A 09007.13973139 .00000363 00000-0 42622-4 0 4907 2 29505 097.6901 018.1825 0001939 241.2083 118.8930 14.90630328120090 SJ-6D 1 29506U 06046B 09007.10287516 -.00000243 00000-0 -19642-4 0 4862 2 29506 097.6915 017.3797 0001509 338.0252 022.0905 14.89932974120033 COROT 1 29678U 06063A 09006.58718037 .00000088 00000-0 54027-4 0 6705 2 29678 089.9184 013.4009 0003288 321.6940 038.4004 13.98076602103539 AIM 1 31304U 07015A 09007.21239301 -.00000014 00000-0 42433-5 0 5826 2 31304 097.8001 109.4970 0012585 038.0485 322.1620 14.92026665 92791